This is the latest recevied weather packets stored in our database for station/object SV9TNF-4. If no packets are shown the sender has not sent any weather packets the latest 10 day(s).
| Time | Temp. | Humidity | Pressure | Rain* | Wind** | Luminosity | Snow |
|---|---|---|---|---|---|---|---|
| 1777757759 | 13.33° C | 55% | 1015.2 hPa | 0 mm | 11.18 m/s, 11° | - | - |
| 1777757458 | 13.33° C | 55% | 1015.2 hPa | 0 mm | 11.18 m/s, 11° | - | - |
| 1777757159 | 13.33° C | 53% | 1015.2 hPa | 0 mm | 21.01 m/s, 355° | - | - |
| 1777756858 | 13.33° C | 53% | 1015.2 hPa | 0 mm | 21.01 m/s, 355° | - | - |
| 1777756558 | 13.33° C | 53% | 1015.2 hPa | 0 mm | 21.01 m/s, 355° | - | - |
| 1777756258 | 13.33° C | 53% | 1015.2 hPa | 0 mm | 21.01 m/s, 355° | - | - |
| 1777755358 | 13.33° C | 53% | 1015.2 hPa | 0 mm | 21.01 m/s, 355° | - | - |
| 1777755058 | 13.33° C | 53% | 1015.2 hPa | 0 mm | 21.01 m/s, 355° | - | - |
| 1777754758 | 13.33° C | 54% | 1014.2 hPa | 0 mm | 35.32 m/s, 354° | - | - |
| 1777753858 | 13.33° C | 54% | 1014.2 hPa | 0 mm | 35.32 m/s, 354° | - | - |
| 1777752357 | 13.33° C | 54% | 1014.2 hPa | 0 mm | 43.36 m/s, 24° | - | - |
| 1777749957 | 13.33° C | 57% | 1013.6 hPa | 0 mm | 37.1 m/s, 354° | - | - |
| 1777749656 | 13.33° C | 57% | 1013.6 hPa | 0 mm | 37.1 m/s, 354° | - | - |
| 1777749356 | 13.33° C | 57% | 1013.6 hPa | 0 mm | 37.1 m/s, 354° | - | - |
| 1777749056 | 13.33° C | 57% | 1013.6 hPa | 0 mm | 37.1 m/s, 354° | - | - |
| 1777748756 | 13.33° C | 57% | 1013.6 hPa | 0 mm | 37.1 m/s, 354° | - | - |
| 1777748456 | 13.33° C | 57% | 1013.6 hPa | 0 mm | 37.1 m/s, 354° | - | - |
| 1777747856 | 13.33° C | 57% | 1013.6 hPa | 0 mm | 37.1 m/s, 354° | - | - |
| 1777747556 | 13.33° C | 57% | 1013.6 hPa | 0 mm | 37.1 m/s, 354° | - | - |
| 1777747255 | 13.33° C | 57% | 1013.6 hPa | 0 mm | 37.1 m/s, 354° | - | - |
| 1777746955 | 13.33° C | 57% | 1013.6 hPa | 0 mm | 37.1 m/s, 354° | - | - |
| 1777746655 | 13.33° C | 57% | 1013.6 hPa | 0 mm | 37.1 m/s, 354° | - | - |
| 1777746355 | 13.33° C | 52% | 1013.6 hPa | 0 mm | 29.06 m/s, 348° | - | - |
| 1777746055 | 13.33° C | 52% | 1013.6 hPa | 0 mm | 29.06 m/s, 348° | - | - |
| 1777745455 | 13.33° C | 52% | 1013.6 hPa | 0 mm | 29.06 m/s, 348° | - | - |
* Rain latest hour (hover to see other rain measurements)
** Current wind speed in m/s (hover to see current wind gust speed)